sat.trackr.live / text

‹ back to catalog

STARLINK-32605

NORAD 61921 · 2024-207K

PAYLOAD ACTIVE UNKNOWN

§ Identity

Operator
Country
US
Launch date
2024-11-11
Launch site
AFETR
Launch vehicle
Mass (kg)
RCS (m²)

Purposes: comms

External: N2YO · Heavens-Above · Gunter

§ Orbital elements

Epoch: 2026-09-21T06:09:53.157600Z

Period
94.27 min
Inclination
42.9994°
Eccentricity
0.0003062
Mean motion
15.27582654 rev/d
Perigee alt
480.9 km
Apogee alt
485.1 km
Semi-major
6,861.2 km
B*
3.1046e-4
RAAN
257.0990°
Arg perigee
275.0959°
Mean anomaly
84.9543°
Rev number
10,463

§ Raw data

STARLINK-326051 61921U 24207K   26264.25686525  .00008291  00000+0  31046-3 0  99992 61921  42.9994 257.0990 0003062 275.0959  84.9543 15.27582654104630

JSON: /api/v1/satellites/61921 · /tle

For live sub-satellite position, see the globe view (requires WebGL).

§ Visibility from observer

Set your observer location to see the next 7 days of passes ≥ 10°. The values pass through the URL so the page stays shareable.

No JS? Fill the form by hand. The geolocation button needs JavaScript.